Location: Newark
(41.7475°N, 12.6504°E)
Time: 08:08:50
(UTC+00:00)

Envisat - Visible Passes

Search period start: 12 December 2019 00:00
Search period end: 22 December 2019 00:00
Orbit: 764 x 766 km, 98.1° (Epoch: 11 December)

Date Brightness Start Highest point End Pass type
(mag) Time Alt. Az. Time Alt. Az. Time Alt. Az.
12 Dec 5.3 05:08:49 10° NE 05:13:08 27° E 05:17:24 10° SSE visible
12 Dec 3.5 16:23:29 10° SE 16:28:07 37° ENE 16:32:45 10° N visible
12 Dec 5.1 18:02:58 10° SSW 18:07:11 26° W 18:11:26 10° NW visible
13 Dec 6.2 04:34:03 10° ENE 04:35:59 12° E 04:37:55 10° ESE visible
13 Dec 3.6 17:25:14 10° S 17:30:14 58° W 17:35:16 10° NNW visible
14 Dec 4.2 05:33:51 10° NNE 05:38:46 47° E 05:43:39 10° S visible
14 Dec 2.9 16:48:28 10° SSE 16:53:28 64° ENE 16:58:30 10° N visible
14 Dec 5.9 18:30:03 10° SW 18:32:56 15° W 18:35:48 10° NW visible
15 Dec 5.7 04:57:53 10° NE 05:01:45 22° E 05:05:37 10° SE visible
15 Dec 3.8 16:12:33 10° SE 16:16:55 30° ENE 16:21:17 10° N visible
15 Dec 4.7 17:51:17 10° SSW 17:55:49 33° W 18:00:25 10° NNW visible
16 Dec 3.2 17:13:52 10° S 17:18:56 74° WSW 17:24:02 10° NNW visible
17 Dec 4.7 05:22:43 10° NNE 05:27:26 37° E 05:32:07 10° SSE visible
17 Dec 3.1 16:37:21 10° SE 16:42:14 50° ENE 16:47:08 10° N visible
17 Dec 5.6 18:17:57 10° SW 18:21:32 19° W 18:25:07 10° NW visible
18 Dec 5.9 04:47:05 10° NE 04:50:22 17° E 04:53:39 10° SE visible
18 Dec 4.3 17:39:42 10° SSW 17:44:29 42° W 17:49:19 10° NNW visible
19 Dec 3.5 05:47:56 10° NNE 05:53:01 66° ESE 05:58:03 10° S visible
19 Dec 2.9 17:02:34 10° SSE 17:07:39 88° ENE 17:12:45 10° NNW visible
19 Dec 6.2 18:46:30 10° W 18:47:20 10° W 18:48:10 10° WNW visible
20 Dec 5.1 05:11:38 10° NE 05:16:05 30° E 05:20:30 10° SSE visible
20 Dec 3.4 16:26:18 10° SE 16:31:00 40° ENE 16:35:44 10° N visible
20 Dec 5.3 18:06:05 10° SSW 18:10:09 24° W 18:14:15 10° NW visible
21 Dec 6.1 04:36:32 10° ENE 04:38:57 13° E 04:41:23 10° ESE visible
21 Dec 3.8 17:28:13 10° S 17:33:10 53° W 17:38:09 10° NNW visible
